FENGYUN 3C

Last updated on Thu Jul 03 2025 00:02:22 GMT+0000 (Coordinated Universal Time)

1 39260U 13052A 25183.54831212 .00000070 00000+0 56661-4 0 9990 2 39260 98.4550 169.3618 0013798 313.7043 46.2988 14.15632758609099
UTC large
Height (km)
Speed (km/s)
/
Latitude / Longitude
Inclination (degrees)
Orbital Period (minutes)
Azimuth
Elevation
Range (km)
Doppler Factor

Next 0 passes for location: London (51.5072 / 0.1276)

Sorry there are no passes over London.